owner,sensor,date,latitude,longitude,vertical_datum,wind_speed,wind_to_direction,wind_speed_of_gust,qcFlag 
NDBC,ioos:station:NOAA.NDBC:BURL1:1,2014-02-01T00:00:00Z,28.9060,-89.4290,30.5,6.7,30.0,6.7,'1111122,1111122,1111122' 
NDBC,ioos:station:NOAA.NDBC:BURL1:1,2014-02-01T01:00:00Z,28.9060,-89.4290,30.5,6.7,50.0,7.2,'1111122,1111122,1111122' 
NDBC,ioos:station:NOAA.NDBC:BURL1:1,2014-02-01T02:00:00Z,28.9060,-89.4290,30.5,9.3,70.0,9.3,'1111122,1111122,1111122' 
NDBC,ioos:station:NOAA.NDBC:BURL1:1,2014-02-01T03:00:00Z,28.9060,-89.4290,30.5,8.2,70.0,8.8,'1111122,1111122,1111122' 
NDBC,ioos:station:NOAA.NDBC:BURL1:1,2014-02-01T04:00:00Z,28.9060,-89.4290,30.5,7.2,90.0,7.2,'1111122,1111122,1111122' 
NDBC,ioos:station:NOAA.NDBC:BURL1:1,2014-02-01T05:00:00Z,28.9060,-89.4290,30.5,3.6,90.0,3.6,'1111122,1111122,1111122' 
NDBC,ioos:station:NOAA.NDBC:BURL1:1,2014-02-01T06:00:00Z,28.9060,-89.4290,30.5,3.6,90.0,4.1,'1111122,1111122,1111122' 
NDBC,ioos:station:NOAA.NDBC:BURL1:1,2014-02-01T07:00:00Z,28.9060,-89.4290,30.5,3.6,110.0,3.6,'1111122,1111122,1111122' 
NDBC,ioos:station:NOAA.NDBC:BURL1:1,2014-02-01T08:00:00Z,28.9060,-89.4290,30.5,4.1,130.0,4.1,'1111122,1111122,1111122' 
NDBC,ioos:station:NOAA.NDBC:BURL1:1,2014-02-01T09:00:00Z,28.9060,-89.4290,30.5,4.6,150.0,5.1,'1111122,1111122,1111122' 
NDBC,ioos:station:NOAA.NDBC:BURL1:1,2014-02-01T10:00:00Z,28.9060,-89.4290,30.5,5.1,160.0,5.1,'1111122,1111122,1111122' 
NDBC,ioos:station:NOAA.NDBC:BURL1:1,2014-02-01T11:00:00Z,28.9060,-89.4290,30.5,5.1,160.0,5.1,'1111122,1111122,1111122' 
NDBC,ioos:station:NOAA.NDBC:BURL1:1,2014-02-01T12:00:00Z,28.9060,-89.4290,30.5,5.7,170.0,6.2,'1111122,1111122,1111122' 
NDBC,ioos:station:NOAA.NDBC:BURL1:1,2014-02-01T13:00:00Z,28.9060,-89.4290,30.5,6.2,160.0,6.2,'1111122,1111122,1111122' 
NDBC,ioos:station:NOAA.NDBC:BURL1:1,2014-02-01T14:00:00Z,28.9060,-89.4290,30.5,8.2,160.0,8.2,'1111122,1111122,1111122' 
NDBC,ioos:station:NOAA.NDBC:BURL1:1,2014-02-01T15:00:00Z,28.9060,-89.4290,30.5,7.7,150.0,8.2,'1111122,1111122,1111122' 
NDBC,ioos:station:NOAA.NDBC:BURL1:1,2014-02-01T16:00:00Z,28.9060,-89.4290,30.5,8.2,140.0,8.2,'1111122,1111122,1111122' 
NDBC,ioos:station:NOAA.NDBC:BURL1:1,2014-02-01T17:00:00Z,28.9060,-89.4290,30.5,7.7,140.0,7.7,'1111122,1111122,1111122' 
NDBC,ioos:station:NOAA.NDBC:BURL1:1,2014-02-01T18:00:00Z,28.9060,-89.4290,30.5,7.2,130.0,7.7,'1111122,1111122,1111122' 
NDBC,ioos:station:NOAA.NDBC:BURL1:1,2014-02-01T19:00:00Z,28.9060,-89.4290,30.5,8.2,140.0,8.8,'1111122,1111122,1111122' 
NDBC,ioos:station:NOAA.NDBC:BURL1:1,2014-02-01T20:00:00Z,28.9060,-89.4290,30.5,9.3,140.0,9.3,'1111122,1111122,1111122' 
NDBC,ioos:station:NOAA.NDBC:BURL1:1,2014-02-01T21:00:00Z,28.9060,-89.4290,30.5,8.2,140.0,8.2,'1111122,1111122,1111122' 
NDBC,ioos:station:NOAA.NDBC:BURL1:1,2014-02-01T22:00:00Z,28.9060,-89.4290,30.5,7.7,130.0,8.2,'1111122,1111122,1111122' 
NDBC,ioos:station:NOAA.NDBC:BURL1:1,2014-02-01T23:00:00Z,28.9060,-89.4290,30.5,7.7,130.0,8.2,'1111122,1111122,1111122' 
NDBC,ioos:station:NOAA.NDBC:BURL1:1,2014-02-02T00:00:00Z,28.9060,-89.4290,30.5,9.3,130.0,9.8,'1111122,1111122,1111122' 
NDBC,ioos:station:NOAA.NDBC:BURL1:1,2014-02-02T01:00:00Z,28.9060,-89.4290,30.5,8.8,120.0,9.3,'1111122,1111122,1111122' 
NDBC,ioos:station:NOAA.NDBC:BURL1:1,2014-02-02T02:00:00Z,28.9060,-89.4290,30.5,9.3,120.0,9.8,'1111122,1111122,1111122' 
NDBC,ioos:station:NOAA.NDBC:BURL1:1,2014-02-02T03:00:00Z,28.9060,-89.4290,30.5,9.8,130.0,10.3,'1111122,1111122,1111122' 
NDBC,ioos:station:NOAA.NDBC:BURL1:1,2014-02-02T04:00:00Z,28.9060,-89.4290,30.5,8.8,130.0,9.3,'1111122,1111122,1111122' 
NDBC,ioos:station:NOAA.NDBC:BURL1:1,2014-02-02T05:00:00Z,28.9060,-89.4290,30.5,10.8,130.0,11.3,'1111122,1111122,1111122' 
NDBC,ioos:station:NOAA.NDBC:BURL1:1,2014-02-02T06:00:00Z,28.9060,-89.4290,30.5,10.3,130.0,10.8,'1111122,1111122,1111122' 
NDBC,ioos:station:NOAA.NDBC:BURL1:1,2014-02-02T07:00:00Z,28.9060,-89.4290,30.5,9.8,130.0,9.8,'1111122,1111122,1111122' 
NDBC,ioos:station:NOAA.NDBC:BURL1:1,2014-02-02T08:00:00Z,28.9060,-89.4290,30.5,9.3,130.0,9.3,'1111122,1111122,1111122' 
NDBC,ioos:station:NOAA.NDBC:BURL1:1,2014-02-02T09:00:00Z,28.9060,-89.4290,30.5,9.3,140.0,9.8,'1111122,1111122,1111122' 
NDBC,ioos:station:NOAA.NDBC:BURL1:1,2014-02-02T10:00:00Z,28.9060,-89.4290,30.5,9.3,140.0,9.8,'1111122,1111122,1111122' 
NDBC,ioos:station:NOAA.NDBC:BURL1:1,2014-02-02T11:00:00Z,28.9060,-89.4290,30.5,8.2,130.0,8.8,'1111122,1111122,1111122' 
NDBC,ioos:station:NOAA.NDBC:BURL1:1,2014-02-02T12:00:00Z,28.9060,-89.4290,30.5,9.3,130.0,9.8,'1111122,1111122,1111122' 
NDBC,ioos:station:NOAA.NDBC:BURL1:1,2014-02-02T13:00:00Z,28.9060,-89.4290,30.5,8.2,130.0,8.8,'1111122,1111122,1111122' 
NDBC,ioos:station:NOAA.NDBC:BURL1:1,2014-02-02T14:00:00Z,28.9060,-89.4290,30.5,9.3,130.0,9.8,'1111122,1111122,1111122' 
NDBC,ioos:station:NOAA.NDBC:BURL1:1,2014-02-02T15:00:00Z,28.9060,-89.4290,30.5,10.3,130.0,10.8,'1111122,1111122,1111122' 
NDBC,ioos:station:NOAA.NDBC:BURL1:1,2014-02-02T16:00:00Z,28.9060,-89.4290,30.5,11.3,130.0,11.8,'1111122,1111122,1111122' 
NDBC,ioos:station:NOAA.NDBC:BURL1:1,2014-02-02T17:00:00Z,28.9060,-89.4290,30.5,10.8,130.0,10.8,'1111122,1111122,1111122' 
NDBC,ioos:station:NOAA.NDBC:BURL1:1,2014-02-02T18:00:00Z,28.9060,-89.4290,30.5,10.3,130.0,10.8,'1111122,1111122,1111122' 
NDBC,ioos:station:NOAA.NDBC:BURL1:1,2014-02-02T19:00:00Z,28.9060,-89.4290,30.5,10.3,140.0,10.3,'1111122,1111122,1111122' 
NDBC,ioos:station:NOAA.NDBC:BURL1:1,2014-02-02T20:00:00Z,28.9060,-89.4290,30.5,10.3,140.0,10.8,'1111122,1111122,1111122' 
NDBC,ioos:station:NOAA.NDBC:BURL1:1,2014-02-02T21:00:00Z,28.9060,-89.4290,30.5,10.8,150.0,10.8,'1111122,1111122,1111122' 
NDBC,ioos:station:NOAA.NDBC:BURL1:1,2014-02-02T22:00:00Z,28.9060,-89.4290,30.5,8.8,160.0,9.3,'1111122,1111122,1111122' 
NDBC,ioos:station:NOAA.NDBC:BURL1:1,2014-02-02T23:00:00Z,28.9060,-89.4290,30.5,10.3,170.0,10.8,'1111122,1111122,1111122' 
NDBC,ioos:station:NOAA.NDBC:BURL1:1,2014-02-03T00:00:00Z,28.9060,-89.4290,30.5,10.3,170.0,10.8,'1111122,1111122,1111122' 
NDBC,ioos:station:NOAA.NDBC:BURL1:1,2014-02-03T01:00:00Z,28.9060,-89.4290,30.5,10.8,170.0,11.3,'1111122,1111122,1111122' 
NDBC,ioos:station:NOAA.NDBC:BURL1:1,2014-02-03T02:00:00Z,28.9060,-89.4290,30.5,9.8,170.0,10.3,'1111122,1111122,1111122' 
NDBC,ioos:station:NOAA.NDBC:BURL1:1,2014-02-03T03:00:00Z,28.9060,-89.4290,30.5,9.8,180.0,9.8,'1111122,1111122,1111122' 
NDBC,ioos:station:NOAA.NDBC:BURL1:1,2014-02-03T04:00:00Z,28.9060,-89.4290,30.5,9.8,190.0,9.8,'1111122,1111122,1111122' 
NDBC,ioos:station:NOAA.NDBC:BURL1:1,2014-02-03T05:00:00Z,28.9060,-89.4290,30.5,8.8,200.0,9.3,'1111122,1111122,1111122' 
NDBC,ioos:station:NOAA.NDBC:BURL1:1,2014-02-03T07:00:00Z,28.9060,-89.4290,30.5,8.2,200.0,8.2,'1111122,1111122,1111122' 
NDBC,ioos:station:NOAA.NDBC:BURL1:1,2014-02-03T08:00:00Z,28.9060,-89.4290,30.5,7.2,240.0,7.2,'1111122,1111122,1111122' 
NDBC,ioos:station:NOAA.NDBC:BURL1:1,2014-02-03T09:00:00Z,28.9060,-89.4290,30.5,7.7,230.0,7.7,'1111122,1111122,1111122' 
NDBC,ioos:station:NOAA.NDBC:BURL1:1,2014-02-03T10:00:00Z,28.9060,-89.4290,30.5,5.1,240.0,5.1,'1111122,1111122,1111122' 
NDBC,ioos:station:NOAA.NDBC:BURL1:1,2014-02-03T11:00:00Z,28.9060,-89.4290,30.5,7.2,360.0,7.2,'1111122,1111122,1111122' 
NDBC,ioos:station:NOAA.NDBC:BURL1:1,2014-02-03T12:00:00Z,28.9060,-89.4290,30.5,8.8,360.0,9.8,'1111122,1111122,1111122' 
NDBC,ioos:station:NOAA.NDBC:BURL1:1,2014-02-03T13:00:00Z,28.9060,-89.4290,30.5,9.8,360.0,10.3,'1111122,1111122,1111122' 
NDBC,ioos:station:NOAA.NDBC:BURL1:1,2014-02-03T14:00:00Z,28.9060,-89.4290,30.5,9.8,360.0,10.3,'1111122,1111122,1111122' 
NDBC,ioos:station:NOAA.NDBC:BURL1:1,2014-02-03T15:00:00Z,28.9060,-89.4290,30.5,10.3,360.0,11.3,'1111122,1111122,1111122' 
NDBC,ioos:station:NOAA.NDBC:BURL1:1,2014-02-03T16:00:00Z,28.9060,-89.4290,30.5,10.8,10.0,11.8,'1111122,1111122,1111122' 
NDBC,ioos:station:NOAA.NDBC:BURL1:1,2014-02-03T17:00:00Z,28.9060,-89.4290,30.5,9.8,10.0,10.8,'1111122,1111122,1111122' 
NDBC,ioos:station:NOAA.NDBC:BURL1:1,2014-02-03T18:00:00Z,28.9060,-89.4290,30.5,9.8,10.0,10.3,'1111122,1111122,1111122' 
NDBC,ioos:station:NOAA.NDBC:BURL1:1,2014-02-03T19:00:00Z,28.9060,-89.4290,30.5,9.8,10.0,10.3,'1111122,1111122,1111122' 
NDBC,ioos:station:NOAA.NDBC:BURL1:1,2014-02-03T20:00:00Z,28.9060,-89.4290,30.5,9.8,10.0,10.8,'1111122,1111122,1111122' 
NDBC,ioos:station:NOAA.NDBC:BURL1:1,2014-02-03T21:00:00Z,28.9060,-89.4290,30.5,8.8,10.0,9.3,'1111122,1111122,1111122' 
NDBC,ioos:station:NOAA.NDBC:BURL1:1,2014-02-03T22:00:00Z,28.9060,-89.4290,30.5,9.3,20.0,9.8,'1111122,1111122,1111122' 
NDBC,ioos:station:NOAA.NDBC:BURL1:1,2014-02-03T23:00:00Z,28.9060,-89.4290,30.5,6.7,30.0,7.2,'1111122,1111122,1111122' 
NDBC,ioos:station:NOAA.NDBC:BURL1:1,2014-02-04T00:00:00Z,28.9060,-89.4290,30.5,7.7,20.0,8.2,'1111122,1111122,1111122' 
NDBC,ioos:station:NOAA.NDBC:BURL1:1,2014-02-04T01:00:00Z,28.9060,-89.4290,30.5,8.2,20.0,9.3,'1111122,1111122,1111122' 
NDBC,ioos:station:NOAA.NDBC:BURL1:1,2014-02-04T02:00:00Z,28.9060,-89.4290,30.5,6.7,30.0,7.2,'1111122,1111122,1111122' 
NDBC,ioos:station:NOAA.NDBC:BURL1:1,2014-02-04T03:00:00Z,28.9060,-89.4290,30.5,7.2,20.0,7.7,'1111122,1111122,1111122' 
NDBC,ioos:station:NOAA.NDBC:BURL1:1,2014-02-04T04:00:00Z,28.9060,-89.4290,30.5,7.2,20.0,7.7,'1111122,1111122,1111122' 
NDBC,ioos:station:NOAA.NDBC:BURL1:1,2014-02-04T06:00:00Z,28.9060,-89.4290,30.5,7.7,30.0,8.2,'1111122,1111122,1111122' 
NDBC,ioos:station:NOAA.NDBC:BURL1:1,2014-02-04T07:00:00Z,28.9060,-89.4290,30.5,8.2,30.0,8.8,'1111122,1111122,1111122' 
NDBC,ioos:station:NOAA.NDBC:BURL1:1,2014-02-14T15:00:00Z,28.9060,-89.4290,30.5,1.5,130.0,1.5,'1111122,1111122,1111122' 
NDBC,ioos:station:NOAA.NDBC:BURL1:1,2014-02-14T16:00:00Z,28.9060,-89.4290,30.5,0.5,120.0,0.5,'1111122,1111122,1111122' 
NDBC,ioos:station:NOAA.NDBC:BURL1:1,2014-02-14T17:00:00Z,28.9060,-89.4290,30.5,3.1,130.0,3.6,'1111122,1111122,1111122' 
NDBC,ioos:station:NOAA.NDBC:BURL1:1,2014-02-14T18:00:00Z,28.9060,-89.4290,30.5,2.6,150.0,3.1,'1111122,1111122,1111122' 
NDBC,ioos:station:NOAA.NDBC:BURL1:1,2014-02-14T19:00:00Z,28.9060,-89.4290,30.5,3.1,190.0,3.6,'1111122,1111122,1111122' 
NDBC,ioos:station:NOAA.NDBC:BURL1:1,2014-02-14T20:00:00Z,28.9060,-89.4290,30.5,3.6,210.0,3.6,'1111122,1111122,1111122' 
NDBC,ioos:station:NOAA.NDBC:BURL1:1,2014-02-14T21:00:00Z,28.9060,-89.4290,30.5,7.2,230.0,7.2,'1111122,1111122,1111122' 
NDBC,ioos:station:NOAA.NDBC:BURL1:1,2014-02-14T22:00:00Z,28.9060,-89.4290,30.5,8.2,220.0,8.2,'1111122,1111122,1111122' 
NDBC,ioos:station:NOAA.NDBC:BURL1:1,2014-02-14T23:00:00Z,28.9060,-89.4290,30.5,7.7,230.0,8.2,'1111122,1111122,1111122' 
NDBC,ioos:station:NOAA.NDBC:BURL1:1,2014-02-15T00:00:00Z,28.9060,-89.4290,30.5,8.8,220.0,8.8,'1111122,1111122,1111122' 
NDBC,ioos:station:NOAA.NDBC:BURL1:1,2014-02-15T01:00:00Z,28.9060,-89.4290,30.5,7.7,250.0,8.2,'1111122,1111122,1111122' 
NDBC,ioos:station:NOAA.NDBC:BURL1:1,2014-02-15T02:00:00Z,28.9060,-89.4290,30.5,6.7,250.0,7.2,'1111122,1111122,1111122' 
NDBC,ioos:station:NOAA.NDBC:BURL1:1,2014-02-15T03:00:00Z,28.9060,-89.4290,30.5,10.3,230.0,10.8,'1111122,1111122,1111122' 
NDBC,ioos:station:NOAA.NDBC:BURL1:1,2014-02-15T04:00:00Z,28.9060,-89.4290,30.5,11.3,240.0,11.3,'1111122,1111122,1111122' 
NDBC,ioos:station:NOAA.NDBC:BURL1:1,2014-02-15T05:00:00Z,28.9060,-89.4290,30.5,10.8,250.0,10.8,'1111122,1111122,1111122' 
NDBC,ioos:station:NOAA.NDBC:BURL1:1,2014-02-15T06:00:00Z,28.9060,-89.4290,30.5,10.3,260.0,10.8,'1111122,1111122,1111122' 
NDBC,ioos:station:NOAA.NDBC:BURL1:1,2014-02-15T07:00:00Z,28.9060,-89.4290,30.5,11.3,280.0,12.4,'1111122,1111122,1111122' 
NDBC,ioos:station:NOAA.NDBC:BURL1:1,2014-02-15T08:00:00Z,28.9060,-89.4290,30.5,10.3,300.0,11.3,'1111122,1111122,1111122' 
NDBC,ioos:station:NOAA.NDBC:BURL1:1,2014-02-15T09:00:00Z,28.9060,-89.4290,30.5,10.8,340.0,11.8,'1111122,1111122,1111122' 
NDBC,ioos:station:NOAA.NDBC:BURL1:1,2014-02-15T10:00:00Z,28.9060,-89.4290,30.5,11.8,360.0,12.9,'1111122,1111122,1111122' 
NDBC,ioos:station:NOAA.NDBC:BURL1:1,2014-02-15T14:00:00Z,28.9060,-89.4290,30.5,8.8,10.0,9.3,'1111122,1111122,1111122' 
NDBC,ioos:station:NOAA.NDBC:BURL1:1,2014-02-15T15:00:00Z,28.9060,-89.4290,30.5,7.7,20.0,8.2,'1111122,1111122,1111122' 
NDBC,ioos:station:NOAA.NDBC:BURL1:1,2014-02-15T16:00:00Z,28.9060,-89.4290,30.5,7.2,10.0,7.7,'1111122,1111122,1111122' 
NDBC,ioos:station:NOAA.NDBC:BURL1:1,2014-02-15T17:00:00Z,28.9060,-89.4290,30.5,6.2,360.0,6.2,'1111122,1111122,1111122' 
NDBC,ioos:station:NOAA.NDBC:BURL1:1,2014-02-15T18:00:00Z,28.9060,-89.4290,30.5,5.1,360.0,5.7,'1111122,1111122,1111122' 
NDBC,ioos:station:NOAA.NDBC:BURL1:1,2014-02-15T19:00:00Z,28.9060,-89.4290,30.5,4.6,10.0,5.1,'1111122,1111122,1111122' 
NDBC,ioos:station:NOAA.NDBC:BURL1:1,2014-02-15T20:00:00Z,28.9060,-89.4290,30.5,2.6,20.0,2.6,'1111122,1111122,1111122' 
NDBC,ioos:station:NOAA.NDBC:BURL1:1,2014-02-15T21:00:00Z,28.9060,-89.4290,30.5,2.1,40.0,2.1,'1111122,1111122,1111122' 
NDBC,ioos:station:NOAA.NDBC:BURL1:1,2014-02-15T22:00:00Z,28.9060,-89.4290,30.5,3.1,60.0,3.1,'1111122,1111122,1111122' 
NDBC,ioos:station:NOAA.NDBC:BURL1:1,2014-02-15T23:00:00Z,28.9060,-89.4290,30.5,2.6,60.0,2.6,'1111122,1111122,1111122' 
NDBC,ioos:station:NOAA.NDBC:BURL1:1,2014-02-16T00:00:00Z,28.9060,-89.4290,30.5,1.0,90.0,1.5,'1111122,1111122,1111122' 
NDBC,ioos:station:NOAA.NDBC:BURL1:1,2014-02-16T01:00:00Z,28.9060,-89.4290,30.5,2.6,130.0,2.6,'1111122,1111122,1111122' 
NDBC,ioos:station:NOAA.NDBC:BURL1:1,2014-02-16T02:00:00Z,28.9060,-89.4290,30.5,3.6,130.0,3.6,'1111122,1111122,1111122' 
NDBC,ioos:station:NOAA.NDBC:BURL1:1,2014-02-16T03:00:00Z,28.9060,-89.4290,30.5,2.6,90.0,3.1,'1111122,1111122,1111122' 
NDBC,ioos:station:NOAA.NDBC:BURL1:1,2014-02-16T04:00:00Z,28.9060,-89.4290,30.5,3.6,60.0,3.6,'1111122,1111122,1111122' 
NDBC,ioos:station:NOAA.NDBC:BURL1:1,2014-02-16T05:00:00Z,28.9060,-89.4290,30.5,3.1,80.0,3.1,'1111122,1111122,1111122' 
NDBC,ioos:station:NOAA.NDBC:BURL1:1,2014-02-16T06:00:00Z,28.9060,-89.4290,30.5,1.0,130.0,1.5,'1111122,1111122,1111122' 
NDBC,ioos:station:NOAA.NDBC:BURL1:1,2014-02-16T07:00:00Z,28.9060,-89.4290,30.5,4.6,170.0,5.1,'1111122,1111122,1111122' 
NDBC,ioos:station:NOAA.NDBC:BURL1:1,2014-02-16T08:00:00Z,28.9060,-89.4290,30.5,4.1,200.0,4.1,'1111122,1111122,1111122' 
NDBC,ioos:station:NOAA.NDBC:BURL1:1,2014-02-16T09:00:00Z,28.9060,-89.4290,30.5,2.6,190.0,2.6,'1111122,1111122,1111122' 
NDBC,ioos:station:NOAA.NDBC:BURL1:1,2014-02-16T10:00:00Z,28.9060,-89.4290,30.5,1.5,200.0,2.1,'1111122,1111122,1111122' 
NDBC,ioos:station:NOAA.NDBC:BURL1:1,2014-02-16T12:00:00Z,28.9060,-89.4290,30.5,1.0,40.0,1.0,'1111122,1111122,1111122' 
NDBC,ioos:station:NOAA.NDBC:BURL1:1,2014-02-16T13:00:00Z,28.9060,-89.4290,30.5,2.6,60.0,2.6,'1111122,1111122,1111122' 
NDBC,ioos:station:NOAA.NDBC:BURL1:1,2014-02-16T14:00:00Z,28.9060,-89.4290,30.5,4.1,70.0,4.6,'1111122,1111122,1111122' 
NDBC,ioos:station:NOAA.NDBC:BURL1:1,2014-02-16T15:00:00Z,28.9060,-89.4290,30.5,3.6,70.0,3.6,'1111122,1111122,1111122' 
NDBC,ioos:station:NOAA.NDBC:BURL1:1,2014-02-16T16:00:00Z,28.9060,-89.4290,30.5,4.1,80.0,4.1,'1111122,1111122,1111122' 
NDBC,ioos:station:NOAA.NDBC:BURL1:1,2014-02-16T17:00:00Z,28.9060,-89.4290,30.5,3.6,100.0,3.6,'1111122,1111122,1111122' 
NDBC,ioos:station:NOAA.NDBC:BURL1:1,2014-02-16T18:00:00Z,28.9060,-89.4290,30.5,4.1,120.0,4.1,'1111122,1111122,1111122' 
NDBC,ioos:station:NOAA.NDBC:BURL1:1,2014-02-16T19:00:00Z,28.9060,-89.4290,30.5,3.6,120.0,3.6,'1111122,1111122,1111122' 
NDBC,ioos:station:NOAA.NDBC:BURL1:1,2014-02-16T20:00:00Z,28.9060,-89.4290,30.5,3.1,110.0,3.1,'1111122,1111122,1111122' 
NDBC,ioos:station:NOAA.NDBC:BURL1:1,2014-02-16T21:00:00Z,28.9060,-89.4290,30.5,4.1,140.0,4.1,'1111122,1111122,1111122' 
NDBC,ioos:station:NOAA.NDBC:BURL1:1,2014-02-16T22:00:00Z,28.9060,-89.4290,30.5,4.6,150.0,4.6,'1111122,1111122,1111122' 
NDBC,ioos:station:NOAA.NDBC:BURL1:1,2014-02-16T23:00:00Z,28.9060,-89.4290,30.5,4.6,140.0,4.6,'1111122,1111122,1111122' 
NDBC,ioos:station:NOAA.NDBC:BURL1:1,2014-02-17T00:00:00Z,28.9060,-89.4290,30.5,4.6,140.0,4.6,'1111122,1111122,1111122' 
NDBC,ioos:station:NOAA.NDBC:BURL1:1,2014-02-17T01:00:00Z,28.9060,-89.4290,30.5,4.6,140.0,4.6,'1111122,1111122,1111122' 
NDBC,ioos:station:NOAA.NDBC:BURL1:1,2014-02-17T02:00:00Z,28.9060,-89.4290,30.5,4.6,130.0,4.6,'1111122,1111122,1111122' 
NDBC,ioos:station:NOAA.NDBC:BURL1:1,2014-02-17T03:00:00Z,28.9060,-89.4290,30.5,5.1,140.0,5.1,'1111122,1111122,1111122' 
NDBC,ioos:station:NOAA.NDBC:BURL1:1,2014-02-17T04:00:00Z,28.9060,-89.4290,30.5,6.2,150.0,6.7,'1111122,1111122,1111122' 
NDBC,ioos:station:NOAA.NDBC:BURL1:1,2014-02-17T05:00:00Z,28.9060,-89.4290,30.5,7.2,150.0,7.2,'1111122,1111122,1111122' 
NDBC,ioos:station:NOAA.NDBC:BURL1:1,2014-02-17T06:00:00Z,28.9060,-89.4290,30.5,7.7,160.0,7.7,'1111122,1111122,1111122' 
NDBC,ioos:station:NOAA.NDBC:BURL1:1,2014-02-17T07:00:00Z,28.9060,-89.4290,30.5,5.7,150.0,6.2,'1111122,1111122,1111122' 
NDBC,ioos:station:NOAA.NDBC:BURL1:1,2014-02-17T08:00:00Z,28.9060,-89.4290,30.5,6.2,140.0,6.7,'1111122,1111122,1111122' 
NDBC,ioos:station:NOAA.NDBC:BURL1:1,2014-02-17T09:00:00Z,28.9060,-89.4290,30.5,6.2,150.0,6.2,'1111122,1111122,1111122' 
NDBC,ioos:station:NOAA.NDBC:BURL1:1,2014-02-17T10:00:00Z,28.9060,-89.4290,30.5,6.2,140.0,6.2,'1111122,1111122,1111122' 
NDBC,ioos:station:NOAA.NDBC:BURL1:1,2014-02-17T11:00:00Z,28.9060,-89.4290,30.5,6.2,140.0,6.2,'1111122,1111122,1111122' 
NDBC,ioos:station:NOAA.NDBC:BURL1:1,2014-02-17T12:00:00Z,28.9060,-89.4290,30.5,6.2,140.0,6.2,'1111122,1111122,1111122' 
NDBC,ioos:station:NOAA.NDBC:BURL1:1,2014-02-17T13:00:00Z,28.9060,-89.4290,30.5,5.7,140.0,6.2,'1111122,1111122,1111122' 
NDBC,ioos:station:NOAA.NDBC:BURL1:1,2014-02-17T14:00:00Z,28.9060,-89.4290,30.5,6.2,150.0,6.2,'1111122,1111122,1111122' 
NDBC,ioos:station:NOAA.NDBC:BURL1:1,2014-02-17T15:00:00Z,28.9060,-89.4290,30.5,5.7,160.0,5.7,'1111122,1111122,1111122' 
NDBC,ioos:station:NOAA.NDBC:BURL1:1,2014-02-17T16:00:00Z,28.9060,-89.4290,30.5,3.6,170.0,4.1,'1111122,1111122,1111122' 
NDBC,ioos:station:NOAA.NDBC:BURL1:1,2014-02-17T17:00:00Z,28.9060,-89.4290,30.5,4.1,180.0,4.1,'1111122,1111122,1111122' 
NDBC,ioos:station:NOAA.NDBC:BURL1:1,2014-02-17T18:00:00Z,28.9060,-89.4290,30.5,3.6,200.0,4.1,'1111122,1111122,1111122' 
NDBC,ioos:station:NOAA.NDBC:BURL1:1,2014-02-17T19:00:00Z,28.9060,-89.4290,30.5,3.6,200.0,3.6,'1111122,1111122,1111122' 
NDBC,ioos:station:NOAA.NDBC:BURL1:1,2014-02-17T20:00:00Z,28.9060,-89.4290,30.5,3.1,260.0,3.1,'1111122,1111122,1111122' 
NDBC,ioos:station:NOAA.NDBC:BURL1:1,2014-02-17T21:00:00Z,28.9060,-89.4290,30.5,1.5,270.0,1.5,'1111122,1111122,1111122' 
NDBC,ioos:station:NOAA.NDBC:BURL1:1,2014-02-17T22:00:00Z,28.9060,-89.4290,30.5,1.5,230.0,1.5,'1111122,1111122,1111122' 
NDBC,ioos:station:NOAA.NDBC:BURL1:1,2014-02-17T23:00:00Z,28.9060,-89.4290,30.5,3.6,210.0,3.6,'1111122,1111122,1111122' 
NDBC,ioos:station:NOAA.NDBC:BURL1:1,2014-02-18T00:00:00Z,28.9060,-89.4290,30.5,3.6,200.0,3.6,'1111122,1111122,1111122' 
NDBC,ioos:station:NOAA.NDBC:BURL1:1,2014-02-18T01:00:00Z,28.9060,-89.4290,30.5,3.6,190.0,3.6,'1111122,1111122,1111122' 
NDBC,ioos:station:NOAA.NDBC:BURL1:1,2014-02-18T21:00:00Z,28.9060,-89.4290,30.5,4.6,150.0,4.6,'1111122,1111122,1111122' 
NDBC,ioos:station:NOAA.NDBC:BURL1:1,2014-02-19T15:00:00Z,28.9060,-89.4290,30.5,2.6,130.0,3.1,'1111122,1111122,1111122' 
NDBC,ioos:station:NOAA.NDBC:BURL1:1,2014-02-19T16:00:00Z,28.9060,-89.4290,30.5,3.1,110.0,3.1,'1111122,1111122,1111122' 
NDBC,ioos:station:NOAA.NDBC:BURL1:1,2014-02-19T17:00:00Z,28.9060,-89.4290,30.5,3.6,130.0,4.1,'1111122,1111122,1111122' 
NDBC,ioos:station:NOAA.NDBC:BURL1:1,2014-02-19T18:00:00Z,28.9060,-89.4290,30.5,4.6,140.0,5.1,'1111122,1111122,1111122' 
NDBC,ioos:station:NOAA.NDBC:BURL1:1,2014-02-19T19:00:00Z,28.9060,-89.4290,30.5,4.1,140.0,4.6,'1111122,1111122,1111122' 
NDBC,ioos:station:NOAA.NDBC:BURL1:1,2014-02-19T20:00:00Z,28.9060,-89.4290,30.5,5.1,150.0,5.1,'1111122,1111122,1111122' 
NDBC,ioos:station:NOAA.NDBC:BURL1:1,2014-02-19T21:00:00Z,28.9060,-89.4290,30.5,5.1,160.0,5.7,'1111122,1111122,1111122' 
NDBC,ioos:station:NOAA.NDBC:BURL1:1,2014-02-19T22:00:00Z,28.9060,-89.4290,30.5,5.7,160.0,5.7,'1111122,1111122,1111122' 
NDBC,ioos:station:NOAA.NDBC:BURL1:1,2014-02-19T23:00:00Z,28.9060,-89.4290,30.5,6.7,150.0,6.7,'1111122,1111122,1111122' 
NDBC,ioos:station:NOAA.NDBC:BURL1:1,2014-02-20T00:00:00Z,28.9060,-89.4290,30.5,6.7,140.0,6.7,'1111122,1111122,1111122' 
NDBC,ioos:station:NOAA.NDBC:BURL1:1,2014-02-20T01:00:00Z,28.9060,-89.4290,30.5,6.7,130.0,6.7,'1111122,1111122,1111122' 
NDBC,ioos:station:NOAA.NDBC:BURL1:1,2014-02-20T02:00:00Z,28.9060,-89.4290,30.5,7.2,140.0,7.7,'1111122,1111122,1111122' 
NDBC,ioos:station:NOAA.NDBC:BURL1:1,2014-02-20T03:00:00Z,28.9060,-89.4290,30.5,7.7,140.0,8.2,'1111122,1111122,1111122' 
NDBC,ioos:station:NOAA.NDBC:BURL1:1,2014-02-20T04:00:00Z,28.9060,-89.4290,30.5,8.2,140.0,8.2,'1111122,1111122,1111122' 
NDBC,ioos:station:NOAA.NDBC:BURL1:1,2014-02-20T05:00:00Z,28.9060,-89.4290,30.5,6.7,140.0,6.7,'1111122,1111122,1111122' 
NDBC,ioos:station:NOAA.NDBC:BURL1:1,2014-02-20T06:00:00Z,28.9060,-89.4290,30.5,8.2,150.0,8.2,'1111122,1111122,1111122' 
NDBC,ioos:station:NOAA.NDBC:BURL1:1,2014-02-20T07:00:00Z,28.9060,-89.4290,30.5,8.8,150.0,8.8,'1111122,1111122,1111122' 
NDBC,ioos:station:NOAA.NDBC:BURL1:1,2014-02-20T08:00:00Z,28.9060,-89.4290,30.5,8.2,150.0,8.2,'1111122,1111122,1111122' 
NDBC,ioos:station:NOAA.NDBC:BURL1:1,2014-02-20T09:00:00Z,28.9060,-89.4290,30.5,7.7,150.0,7.7,'1111122,1111122,1111122' 
NDBC,ioos:station:NOAA.NDBC:BURL1:1,2014-02-20T10:00:00Z,28.9060,-89.4290,30.5,7.7,170.0,7.7,'1111122,1111122,1111122' 
NDBC,ioos:station:NOAA.NDBC:BURL1:1,2014-02-20T11:00:00Z,28.9060,-89.4290,30.5,6.7,170.0,6.7,'1111122,1111122,1111122' 
NDBC,ioos:station:NOAA.NDBC:BURL1:1,2014-02-20T12:00:00Z,28.9060,-89.4290,30.5,7.2,170.0,7.2,'1111122,1111122,1111122' 
NDBC,ioos:station:NOAA.NDBC:BURL1:1,2014-02-20T13:00:00Z,28.9060,-89.4290,30.5,7.7,160.0,7.7,'1111122,1111122,1111122' 
NDBC,ioos:station:NOAA.NDBC:BURL1:1,2014-02-20T14:00:00Z,28.9060,-89.4290,30.5,8.8,150.0,8.8,'1111122,1111122,1111122' 
NDBC,ioos:station:NOAA.NDBC:BURL1:1,2014-02-20T15:00:00Z,28.9060,-89.4290,30.5,8.2,150.0,8.2,'1111122,1111122,1111122' 
NDBC,ioos:station:NOAA.NDBC:BURL1:1,2014-02-20T16:00:00Z,28.9060,-89.4290,30.5,8.8,150.0,8.8,'1111122,1111122,1111122' 
NDBC,ioos:station:NOAA.NDBC:BURL1:1,2014-02-20T17:00:00Z,28.9060,-89.4290,30.5,8.8,160.0,8.8,'1111122,1111122,1111122' 
NDBC,ioos:station:NOAA.NDBC:BURL1:1,2014-02-20T18:00:00Z,28.9060,-89.4290,30.5,7.7,170.0,7.7,'1111122,1111122,1111122' 
NDBC,ioos:station:NOAA.NDBC:BURL1:1,2014-02-20T19:00:00Z,28.9060,-89.4290,30.5,6.7,180.0,6.7,'1111122,1111122,1111122' 
NDBC,ioos:station:NOAA.NDBC:BURL1:1,2014-02-20T20:00:00Z,28.9060,-89.4290,30.5,7.7,170.0,8.2,'1111122,1111122,1111122' 
NDBC,ioos:station:NOAA.NDBC:BURL1:1,2014-02-20T21:00:00Z,28.9060,-89.4290,30.5,8.2,160.0,8.8,'1111122,1111122,1111122' 
NDBC,ioos:station:NOAA.NDBC:BURL1:1,2014-02-20T22:00:00Z,28.9060,-89.4290,30.5,7.7,160.0,7.7,'1111122,1111122,1111122' 
NDBC,ioos:station:NOAA.NDBC:BURL1:1,2014-02-20T23:00:00Z,28.9060,-89.4290,30.5,9.3,160.0,9.8,'1111122,1111122,1111122' 
NDBC,ioos:station:NOAA.NDBC:BURL1:1,2014-02-21T00:00:00Z,28.9060,-89.4290,30.5,10.8,170.0,10.8,'1111122,1111122,1111122' 
NDBC,ioos:station:NOAA.NDBC:BURL1:1,2014-02-21T01:00:00Z,28.9060,-89.4290,30.5,9.8,160.0,9.8,'1111122,1111122,1111122' 
NDBC,ioos:station:NOAA.NDBC:BURL1:1,2014-02-21T02:00:00Z,28.9060,-89.4290,30.5,9.3,170.0,9.3,'1111122,1111122,1111122' 
NDBC,ioos:station:NOAA.NDBC:BURL1:1,2014-02-21T03:00:00Z,28.9060,-89.4290,30.5,10.3,170.0,10.3,'1111122,1111122,1111122' 
NDBC,ioos:station:NOAA.NDBC:BURL1:1,2014-02-21T04:00:00Z,28.9060,-89.4290,30.5,11.3,170.0,11.3,'1111122,1111122,1111122' 
NDBC,ioos:station:NOAA.NDBC:BURL1:1,2014-02-21T05:00:00Z,28.9060,-89.4290,30.5,10.3,180.0,10.8,'1111122,1111122,1111122' 
NDBC,ioos:station:NOAA.NDBC:BURL1:1,2014-02-21T06:00:00Z,28.9060,-89.4290,30.5,8.8,200.0,8.8,'1111122,1111122,1111122' 